Content
SEND FEEDBACK

Daily
Averages
Monthly
Summary
Switzerland

GENEVA, SWITZERLAND


Home > Europe > Switzerland
Elevation: 1364 feet     Latitude: 46 15N     Longitude: 006 08E

WEATHER
 
SELECT A DAY
Number of Records: 306,426;   Date Range: 7/1/96 - 9/22/14
 
SHARE

PRINT THIS DATA

[ ← Previous Day ]
WEATHER ALMANAC - FEBRUARY 9, 2013
[ Next Day → ]
[ °C ]   °F
Weather ElementAverageHighLow
Temperature30.2 °F35.6 °F (12:50 pm)24.8 °F (10:50 pm)
Dewpoint20.4 °F24.8 °F (7:50 am)14 °F (3:00 pm)
Humidity65.2 %86 % (6:20 am)29 % (2:00 pm)
Barometer30.05 in30.15 in (9:00 am)30.01 in (12:20 am)
Wind Speed2.8 mph5.8 mph (11:50 am)
Weather ElementAverage
Visibility7.3 mi
Wind DirectionENE (76.4 °)

Weather ElementTotal
Precipitation---
Heating Degree Days34.8 (Base 65)
Averaged from 67 records on February 9, 2013
WEATHER CONDITIONS BREAKOUT
WIND DIRECTION BREAKOUT
WEATHER BY HOUR - FEBRUARY 9, 2013
[ °C ]   °F
Local TimeTemperatureDewpointHumidityBarometerVisibilityWind DirectionWind SpeedGust SpeedPrecipitationEventsConditions
12:20 AM28.4 °F21.2 °F74 %30.01 in6.2 miWSW (240°)3.5 mphMostly Cloudy
12:50 AM28.4 °F23.0 °F80 %30.01 in6.2 miVariable2.3 mphScattered Clouds
1:00 AM29.0 °F22.0 °F65 %30.10 in28.0 miNorth1.2 mphScattered Clouds
1:20 AM28.4 °F23.0 °F80 %30.01 in6.2 miVariable1.2 mphMostly Cloudy
1:50 AM28.4 °F23.0 °F80 %30.01 in6.2 miVariable1.2 mphMostly Cloudy
2:00 AM29.0 °F21.0 °F62 %30.10 inEast (90°)1.2 mph
2:50 AM28.4 °F23.0 °F80 %30.01 in6.2 miCalmMostly Cloudy
3:00 AM29.0 °F23.0 °F68 %30.10 inSE (140°)2.3 mph
3:20 AM28.4 °F23.0 °F80 %30.01 in6.2 miSSE (150°)3.5 mphMostly Cloudy
3:50 AM28.4 °F21.2 °F74 %30.01 in6.2 miVariable2.3 mphMostly Cloudy
4:20 AM28.4 °F23.0 °F80 %30.01 in6.2 miVariable2.3 mphMostly Cloudy
4:50 AM28.4 °F21.2 °F74 %30.01 in6.2 miESE (120°)3.5 mphMostly Cloudy
5:00 AM29.0 °F21.0 °F61 %30.09 inSE (130°)3.5 mph
5:20 AM28.4 °F23.0 °F80 %30.01 in6.2 miVariable3.5 mphMostly Cloudy
5:50 AM28.4 °F23.0 °F80 %30.01 in6.2 miVariable2.3 mphMostly Cloudy
6:00 AM28.0 °F22.0 °F69 %30.10 inCalm
6:20 AM26.6 °F23.0 °F86 %30.01 in6.2 miCalmScattered Clouds
6:50 AM28.4 °F23.0 °F80 %30.04 in6.2 miVariable1.2 mphScattered Clouds
7:00 AM29.0 °F22.0 °F66 %30.11 in25.0 miNorth (350°)2.3 mphPartly Cloudy
7:20 AM28.4 °F23.0 °F80 %30.04 in6.2 miVariable2.3 mphScattered Clouds
7:50 AM28.4 °F24.8 °F86 %30.04 in6.2 miVariable1.2 mphScattered Clouds
8:00 AM27.0 °F24.0 °F81 %30.13 inESE (110°)3.5 mph
8:20 AM26.6 °F23.0 °F86 %30.04 in6.2 miVariable2.3 mphScattered Clouds
8:50 AM26.6 °F23.0 °F86 %30.06 in6.2 miVariable1.2 mphPartly Cloudy
9:00 AM25.0 °F22.0 °F84 %30.15 inWNW (300°)3.5 mph
9:20 AM28.4 °F24.8 °F86 %30.06 in6.2 miVariable1.2 mphPartly Cloudy
9:50 AM30.2 °F24.8 °F80 %30.06 in6.2 miVariable1.2 mphPartly Cloudy
10:20 AM30.2 °F21.2 °F69 %30.06 in6.2 miVariable1.2 mphPartly Cloudy
10:50 AM32.0 °F21.2 °F64 %30.06 in6.2 miVariable2.3 mphPartly Cloudy
11:00 AM31.0 °F18.0 °F47 %30.14 inNNE (30°)2.3 mph
11:20 AM33.8 °F21.2 °F60 %30.06 in6.2 miVariable2.3 mphPartly Cloudy
11:50 AM33.8 °F19.4 °F56 %30.06 in6.2 miEast (90°)5.8 mphPartly Cloudy
12:00 PM33.0 °F17.0 °F38 %30.14 inEast (90°)4.6 mph
12:20 PM33.8 °F17.6 °F52 %30.06 in6.2 miEast (80°)4.6 mphPartly Cloudy
12:50 PM35.6 °F17.6 °F48 %30.04 in6.2 miVariable2.3 mphPartly Cloudy
1:00 PM35.0 °F17.0 °F34 %30.11 inEast (80°)5.8 mph
1:20 PM35.6 °F15.8 °F44 %30.04 in6.2 miEast (90°)4.6 mphPartly Cloudy
1:38 PM35.6 °F15.8 °F44 %30.04 in6.2 miEast (90°)4.6 mphScattered Clouds
1:50 PM35.6 °F17.6 °F48 %30.04 in6.2 miVariable3.5 mphScattered Clouds
2:00 PM35.0 °F15.0 °F29 %30.09 inEast (100°)5.8 mph
2:20 PM35.6 °F17.6 °F48 %30.04 in6.2 miENE (70°)5.8 mphScattered Clouds
2:50 PM33.8 °F15.8 °F48 %30.01 in6.2 miVariable3.5 mphMostly Cloudy
3:00 PM34.0 °F14.0 °F30 %30.09 inEast (90°)4.6 mph
3:20 PM33.8 °F17.6 °F52 %30.01 in6.2 miNE (50°)4.6 mphMostly Cloudy
3:50 PM33.8 °F17.6 °F52 %30.01 in6.2 miVariable2.3 mphMostly Cloudy
4:20 PM33.8 °F17.6 °F52 %30.01 in6.2 miVariable3.5 mphMostly Cloudy
4:50 PM33.8 °F17.6 °F52 %30.01 in6.2 miVariable3.5 mphMostly Cloudy
5:00 PM33.0 °F15.0 °F35 %30.08 inNE (50°)4.6 mph
5:20 PM33.8 °F17.6 °F52 %30.01 in6.2 miVariable2.3 mphMostly Cloudy
5:50 PM32.0 °F19.4 °F60 %30.01 in6.2 miVariable1.2 mphMostly Cloudy
6:00 PM31.0 °F19.0 °F48 %30.09 inNorth (350°)2.3 mph
6:20 PM30.2 °F21.2 °F69 %30.01 in6.2 miVariable2.3 mphMostly Cloudy
6:50 PM30.2 °F21.2 °F69 %30.01 in6.2 miVariable2.3 mphMostly Cloudy
7:00 PM31.0 °F20.0 °F52 %30.09 in22.0 miNNE (30°)3.5 mphMostly Cloudy
7:20 PM30.2 °F23.0 °F75 %30.01 in6.2 miVariable2.3 mphScattered Clouds
7:50 PM28.4 °F21.2 °F74 %30.01 in6.2 miVariable3.5 mphScattered Clouds
8:00 PM28.0 °F21.0 °F65 %30.10 inNorth (350°)3.5 mph
8:20 PM28.4 °F21.2 °F74 %30.01 in6.2 miVariable2.3 mphPartly Cloudy
8:50 PM28.4 °F21.2 °F74 %30.01 in6.2 miVariable2.3 mphPartly Cloudy
9:00 PM28.0 °F20.0 °F61 %30.09 inNorth3.5 mph
9:20 PM28.4 °F19.4 °F69 %30.01 in6.2 miNorth (360°)2.3 mphPartly Cloudy
9:50 PM28.4 °F19.4 °F69 %30.01 in6.2 miNE (40°)4.6 mphPartly Cloudy
10:20 PM28.4 °F21.2 °F74 %30.01 in6.2 miNNW (340°)3.5 mphPartly Cloudy
10:50 PM24.8 °F19.4 °F80 %30.01 in6.2 miNNW (330°)3.5 mphPartly Cloudy
11:00 PM27.0 °F19.0 °F62 %30.10 inNorth (350°)3.5 mph
11:20 PM24.8 °F19.4 °F80 %30.01 in6.2 miNorth (350°)3.5 mphPartly Cloudy
11:50 PM26.6 °F19.4 °F74 %30.01 in6.2 miVariable2.3 mphPartly Cloudy
Hourly data recorded from LSGG, located miles away from Geneva, Switzerland







STORIES FROM OUR PARTNERS